Theta_e
303 303 303 303 303 304 304 305 306 308 310 313 316 316 313 311 311 310 313 317 318 317 316 330 329 341 348 351 352 352 356 359 355 351 351 345 352 351 349 351 352 353 350 350 350
302 302 302 302 302 303 304 304 304 304 306 309 313 316 316 313 312 313 318 318 318 318 316 331 332 340 347 348 348 350 353 351 350 347 348 347 345 348 348 349 351 352 350 350 349
302 302 303 303 303 303 303 304 304 305 305 307 311 314 315 314 315 319 322 320 318 318 320 330 333 339 344 345 345 346 352 346 345 346 345 346 344 347 346 349 352 351 350 350 349
302 302 302 302 303 303 303 304 304 305 305 310 312 313 313 313 325 327 321 321 320 318 320 327 335 339 345 344 343 346 347 344 345 346 342 348 344 345 345 347 351 352 350 350 349
302 302 303 303 303 303 304 304 305 305 306 309 313 313 313 318 318 322 320 320 319 318 323 326 334 340 345 343 343 344 348 346 342 345 341 345 347 345 345 346 349 351 350 350 349
302 303 303 303 303 304 304 304 305 305 307 310 315 314 312 321 324 323 323 319 321 320 324 325 332 338 342 342 342 342 343 345 345 346 342 340 346 345 346 344 348 350 350 349 349
302 302 302 303 303 304 304 305 305 306 307 311 314 317 317 321 325 321 323 325 323 323 323 325 329 334 340 343 341 340 342 343 344 344 342 340 340 344 346 345 345 349 350 349 349
302 302 302 303 303 304 304 304 305 308 312 310 314 315 320 326 325 322 318 323 325 327 325 325 329 332 336 339 341 340 340 344 344 344 341 339 340 347 345 346 346 348 349 349 349
302 302 302 302 303 303 304 308 311 313 315 314 319 319 325 326 325 324 320 321 326 330 329 327 329 330 333 339 341 339 341 342 344 343 341 339 340 340 347 347 349 347 348 349 349
302 302 302 302 302 306 309 312 314 316 324 320 323 324 323 326 326 325 324 322 326 330 331 331 332 332 333 337 343 340 340 339 343 343 340 340 340 342 344 348 349 350 347 348 348
302 302 302 302 303 309 312 312 312 321 314 320 326 323 325 327 325 323 324 321 327 331 335 334 335 335 333 335 337 339 338 336 338 339 341 340 342 344 344 344 350 350 350 348 348
302 302 302 302 305 309 312 312 310 309 311 311 313 314 320 325 326 324 323 323 328 334 335 336 337 334 333 334 335 337 338 336 335 337 338 341 340 342 345 343 345 349 350 350 348
302 302 302 303 307 310 312 311 309 310 311 311 312 314 315 318 322 326 323 323 328 333 337 337 335 334 334 335 333 336 337 336 336 336 338 340 341 341 344 344 343 347 349 350 350
302 302 302 302 308 311 311 308 308 309 312 314 317 317 315 316 320 326 323 323 329 331 337 336 334 333 334 334 334 333 335 334 335 336 337 337 339 344 342 342 343 343 348 350 351
302 302 302 307 307 311 308 307 308 310 315 322 321 321 319 317 322 322 326 323 330 329 333 337 333 332 330 332 330 329 329 331 332 334 335 336 338 338 343 342 342 345 347 349 350
302 302 305 308 310 309 307 307 309 313 314 321 322 322 322 319 319 324 326 323 327 328 330 334 333 331 329 328 328 328 328 328 329 331 336 335 337 340 341 344 342 343 343 348 349
303 304 307 308 308 307 307 308 310 312 314 317 318 318 320 323 320 321 327 328 326 328 332 332 334 333 329 329 328 327 327 329 329 330 331 333 335 339 339 342 342 341 341 344 348
303 306 309 309 307 307 307 310 310 311 313 313 314 315 319 322 324 322 325 329 324 326 329 330 331 332 329 329 329 328 328 329 332 331 328 330 333 336 337 338 340 340 340 342 345
305 310 311 309 307 308 309 311 311 312 311 310 312 315 319 321 321 325 325 328 326 325 330 330 331 330 330 329 330 329 329 329 329 329 329 329 330 332 335 337 338 338 340 341 343
307 310 312 309 307 309 311 310 310 310 309 309 311 311 313 314 317 320 326 327 328 325 326 329 331 330 330 330 329 330 330 329 330 332 333 331 335 333 335 337 338 340 338 340 341
310 311 310 309 308 309 310 309 309 308 309 310 309 309 311 315 315 319 323 327 325 328 327 326 330 330 331 330 330 330 331 329 329 330 331 334 332 337 338 338 340 339 338 339 342
310 313 310 308 310 309 309 308 308 309 309 309 309 309 312 313 315 317 323 324 321 322 327 327 326 331 333 331 330 329 331 332 332 335 332 334 334 335 338 338 339 338 337 338 339
310 312 310 308 310 309 308 308 307 309 309 308 308 310 310 310 313 316 317 318 319 321 324 326 330 332 333 333 332 331 330 331 331 331 336 333 332 334 335 338 338 338 339 338 339
310 312 310 308 308 309 308 307 308 308 309 308 308 309 310 310 310 314 315 317 317 319 321 322 328 333 335 335 334 333 330 331 331 333 332 332 334 334 334 334 338 338 337 337 340
310 310 309 310 309 309 308 309 309 309 308 307 308 309 309 309 310 311 313 313 316 319 321 326 331 331 331 333 333 331 330 331 332 334 334 333 333 336 337 337 338 337 337 338 340
307 309 308 308 309 309 309 309 309 308 306 306 308 309 308 307 309 311 311 312 315 315 317 322 328 331 333 333 333 333 331 330 330 330 332 332 333 335 337 335 337 336 334 334 335
306 304 305 307 309 310 310 309 307 308 307 306 308 307 307 308 308 308 308 309 311 313 316 320 325 329 333 333 333 335 333 332 331 331 331 334 335 336 337 337 336 333 333 332 333
Wind_Speed
22 22 22 23 22 22 22 21 21 20 21 20 19 18 16 19 20 21 31 23 14 17 13 11 18 21 20 24 21 25 9 12 6 14 12 7 22 19 15 22 18 13 36 39 38
23 23 24 24 25 25 24 24 24 23 21 22 20 17 16 17 21 30 30 21 21 17 20 19 24 24 26 24 24 18 3 6 9 10 14 16 6 16 16 19 26 34 34 36 40
24 24 25 25 26 27 27 28 27 25 24 19 18 15 12 12 16 24 15 21 23 24 23 19 21 25 27 24 22 23 6 13 26 28 10 18 17 18 18 17 34 36 39 38 40
25 26 26 26 27 28 28 29 28 25 24 20 18 15 10 7 6 1 1 12 22 23 23 23 26 29 23 21 24 17 20 22 17 29 9 7 20 3 16 15 29 33 37 41 35
27 27 27 27 28 29 29 30 28 26 24 21 18 13 11 12 22 12 16 6 19 26 28 29 31 31 24 22 23 21 22 28 10 28 6 26 34 6 2 27 27 31 35 37 35
27 27 28 28 29 30 30 31 29 26 23 19 16 11 15 19 17 19 12 12 19 29 31 29 29 30 27 25 22 24 20 20 29 40 10 7 22 32 20 29 28 32 34 33 33
31 31 30 30 29 30 30 29 27 25 22 18 15 11 16 33 7 10 20 17 20 27 32 30 29 29 30 22 29 26 19 16 15 16 12 14 12 15 10 31 31 32 33 33 31
32 32 32 32 31 30 28 27 28 24 23 16 12 8 14 9 19 18 19 19 19 22 28 25 26 26 30 25 25 20 20 18 18 18 14 11 13 21 32 31 31 31 32 33 32
35 35 34 33 32 29 27 25 25 22 20 6 1 9 13 7 23 28 21 26 22 22 24 26 26 29 26 21 20 21 19 22 21 20 19 18 15 14 31 22 33 31 31 32 32
33 34 34 32 31 26 26 23 21 17 11 4 8 8 20 16 14 26 27 24 27 25 25 28 26 20 21 19 21 22 21 19 22 19 22 20 13 11 20 24 33 36 35 33 34
34 34 34 30 26 24 27 25 27 2 9 24 14 18 12 8 7 20 31 27 29 29 24 30 19 25 30 26 22 23 21 24 20 22 24 22 19 18 15 24 24 32 35 35 34
34 34 34 30 20 22 17 19 18 19 30 28 39 45 43 28 19 20 29 33 30 28 26 22 28 27 26 25 26 28 25 24 23 23 19 22 20 18 23 37 46 30 31 36 33
35 33 33 29 14 18 14 18 22 23 17 31 42 42 48 36 34 25 37 41 29 30 30 28 19 27 26 26 28 28 27 24 22 22 19 19 21 19 21 28 16 37 41 36 38
35 35 31 30 9 15 17 23 23 19 8 11 14 12 39 32 32 35 36 41 28 32 30 27 32 29 27 29 26 26 27 25 25 21 18 20 14 17 19 19 19 20 29 25 38
30 30 27 15 18 15 25 25 21 10 8 8 10 5 11 36 10 43 37 42 32 25 31 30 26 30 28 28 26 24 24 25 25 23 19 20 16 14 22 22 21 24 31 50 34
29 26 22 13 13 18 24 23 13 6 10 8 12 22 9 29 36 13 43 43 39 26 28 31 32 25 25 25 26 24 22 23 23 18 17 23 19 19 18 22 20 22 29 33 34
31 15 9 10 11 24 21 16 7 9 16 18 27 28 27 19 28 30 31 31 28 31 28 29 34 29 27 22 25 22 21 14 14 16 16 21 21 15 20 25 21 22 29 30 36
32 11 11 10 19 19 17 11 11 13 25 31 24 26 23 20 18 27 26 28 33 30 17 23 26 36 23 31 25 28 25 15 22 17 17 23 25 21 23 20 36 38 35 35 34
30 18 12 6 20 14 15 10 7 18 16 20 27 20 22 29 22 19 31 30 32 34 32 23 30 31 33 26 26 23 25 24 21 20 16 18 25 22 25 24 21 18 30 34 37
29 23 16 11 17 14 12 15 9 10 19 20 21 21 23 26 24 25 17 25 27 33 31 28 18 30 33 26 28 27 22 21 17 20 19 19 22 19 22 25 22 16 18 29 35
20 14 6 17 14 19 10 13 20 20 22 17 18 20 18 20 20 24 10 10 24 18 31 30 24 22 29 31 27 22 21 25 19 16 15 13 14 17 25 22 21 22 25 26 32
16 8 17 17 19 13 9 10 10 17 24 17 13 15 10 17 14 16 19 12 37 28 16 34 23 21 27 27 30 28 28 25 13 22 15 14 4 12 15 21 17 12 31 23 28
18 22 8 17 7 10 15 15 19 13 20 11 18 15 17 13 10 14 17 30 37 28 14 12 19 20 26 23 29 32 29 26 22 18 19 14 7 8 11 12 19 18 26 33 23
11 7 19 16 17 17 15 15 19 11 17 15 12 14 16 13 13 9 17 15 35 30 19 9 10 21 19 21 19 27 29 28 25 17 16 18 7 8 8 4 10 17 14 17 24
8 6 12 8 13 14 16 14 19 18 8 17 17 10 14 15 13 9 16 26 26 25 23 8 13 19 29 24 22 26 27 29 30 21 22 18 18 15 11 9 9 11 7 15 21
6 7 12 22 22 16 12 7 14 16 12 16 17 15 16 14 11 14 16 15 10 22 20 19 8 13 17 22 19 18 31 29 29 29 23 24 18 19 16 15 13 17 11 10 11
8 15 10 12 16 12 11 15 16 18 16 18 12 18 19 15 19 20 23 20 18 21 18 14 12 9 16 17 21 19 16 28 26 24 24 20 17 17 20 17 16 16 11 7 3
Wind_Direction
357 353 349 344 338 334 331 327 323 318 314 308 300 293 287 279 273 268 256 240 236 231 215 223 203 203 207 217 220 243 253 298 241 146 280 119 117 102 113 128 120 109 140 145 148
356 353 349 344 339 335 331 327 324 322 318 310 302 296 290 284 283 267 256 246 223 220 218 206 203 202 215 225 231 236 47 272 251 297 210 99 106 136 131 128 111 116 133 144 150
358 354 350 346 341 338 333 328 324 321 320 312 303 295 287 291 297 269 263 235 221 214 211 211 209 207 221 223 227 240 155 263 283 288 52 143 161 152 140 129 127 135 145 150 152
358 354 351 345 340 337 334 331 326 321 316 312 305 290 272 240 261 131 288 220 210 204 207 212 211 212 222 228 232 227 134 244 290 287 193 105 332 103 101 121 132 146 154 153 158
359 354 351 346 341 337 333 330 328 321 315 311 304 277 249 231 241 259 283 246 195 201 204 211 210 214 220 229 230 240 187 191 164 287 236 136 169 80 232 136 133 150 160 162 163
357 353 351 346 342 338 334 330 327 323 317 309 302 272 229 247 250 235 246 236 202 199 206 212 215 217 226 232 237 236 228 182 236 233 223 221 138 129 233 134 142 157 165 169 171
354 353 351 347 343 339 336 330 330 325 317 305 295 271 238 235 228 226 208 222 203 204 205 211 215 217 225 231 243 249 248 260 237 246 237 214 190 184 115 142 150 162 169 173 176
355 353 352 347 344 341 339 332 325 323 317 300 281 234 252 267 207 217 213 212 205 211 207 212 215 229 230 238 244 250 253 239 231 232 229 201 221 142 158 171 154 163 171 176 181
355 352 352 348 344 343 342 336 323 317 317 311 135 210 264 253 218 216 209 206 203 203 208 215 215 227 229 229 241 242 233 235 245 199 220 217 237 162 146 191 158 162 173 178 183
354 352 352 349 347 353 355 345 342 320 347 318 251 234 249 234 225 211 205 204 201 199 206 220 215 217 227 216 222 230 216 232 226 220 209 216 207 172 182 187 168 166 172 179 185
352 352 352 351 350 11 7 5 355 307 322 274 245 237 276 267 237 204 199 200 201 201 207 206 217 215 215 223 225 235 223 226 233 224 207 214 198 186 157 10 259 174 170 176 184
351 351 349 353 353 5 6 7 355 310 301 278 263 260 253 259 258 216 194 197 201 204 203 202 223 217 221 217 228 231 243 235 225 234 214 211 217 197 153 175 226 154 208 174 181
349 348 347 356 350 357 350 344 333 325 291 288 252 244 238 233 240 217 195 199 201 205 202 213 215 222 219 220 222 223 228 240 244 228 244 207 214 224 184 196 200 193 179 183 178
346 342 345 344 5 346 343 335 331 327 287 272 212 255 223 217 226 222 201 201 207 211 208 216 222 200 216 220 219 222 225 238 248 248 227 217 230 210 218 212 185 211 186 186 174
342 337 339 346 334 342 331 328 326 314 292 88 122 4 208 200 170 212 206 204 212 204 210 212 215 221 207 219 215 228 219 226 243 252 257 224 223 228 206 220 196 204 174 197 177
340 335 343 350 317 320 324 321 312 242 247 350 34 348 250 203 233 225 208 203 212 220 216 227 210 221 217 208 222 218 230 218 225 242 242 241 238 212 219 209 207 192 202 188 185
337 332 339 329 318 330 328 322 275 245 294 355 340 337 324 291 217 242 190 200 204 215 213 215 227 215 225 218 207 212 216 213 212 215 230 228 244 248 223 192 212 207 194 192 185
337 311 326 283 328 324 323 290 271 289 353 337 337 315 296 293 289 223 224 208 211 215 212 212 213 218 207 217 201 207 212 213 212 214 219 233 226 233 250 255 202 208 188 189 190
337 331 278 291 331 325 297 291 27 332 319 319 323 306 344 346 344 294 225 212 207 220 220 205 222 202 228 210 214 199 214 217 227 220 224 217 223 241 223 243 246 220 191 188 189
330 313 277 314 321 305 282 283 343 291 307 313 313 319 321 321 326 333 290 219 214 209 233 241 219 224 203 215 216 228 197 217 228 240 226 225 218 210 219 213 227 218 226 191 186
339 309 3 336 313 280 289 344 333 328 341 333 309 316 336 337 320 315 321 318 352 231 210 239 245 227 220 206 207 207 208 209 228 235 239 248 230 199 200 201 203 207 217 201 191
328 304 330 342 304 348 350 339 312 343 299 325 312 317 344 328 314 312 317 324 335 321 285 212 236 245 231 209 206 212 216 201 220 216 245 270 322 22 171 181 188 217 189 212 200
318 304 340 345 324 337 335 336 319 336 323 329 327 340 330 309 322 316 330 318 313 324 352 352 230 227 241 213 193 212 206 223 207 233 222 243 230 85 48 155 183 194 191 197 204
313 321 339 332 349 338 334 320 327 354 341 312 324 323 309 333 320 318 337 319 318 308 324 297 261 240 226 224 202 193 212 207 222 210 227 222 151 129 121 143 156 170 193 201 199
319 315 341 307 328 317 311 352 325 303 217 322 317 322 309 320 323 293 305 319 331 326 332 274 259 247 237 234 214 194 209 212 211 217 218 215 209 140 145 130 133 117 118 181 177
319 334 320 297 295 306 306 302 289 337 334 310 316 310 310 311 342 312 322 316 308 317 334 329 282 269 258 251 258 257 197 213 210 221 208 237 215 139 128 132 125 105 88 70 58
293 315 295 285 297 299 309 316 317 326 320 305 242 293 301 326 307 290 288 271 268 283 310 318 340 307 247 251 253 244 228 198 217 207 220 218 235 143 147 149 145 145 132 125 161